Weather History for La Grange, GA

Change the Weather History Date:

Sunday, November 3, 2013

  Actual Average Record
Temperature  
Mean Temperature 50 °F -  
Max Temperature 65 °F 70 °F 83 °F (1974)
Min Temperature 36 °F 45 °F 20 °F (1954)
Degree Days  
Heating Degree Days 14    
Moisture  
Dew Point 39 °F    
Average Humidity 71    
Maximum Humidity 100    
Minimum Humidity 31    
Precipitation  
Precipitation 0.00 in - - ()
Sea Level Pressure  
Sea Level Pressure 30.18 in    
Wind  
Wind Speed 2 mph (NNE)    
Max Wind Speed 10 mph    
Max Gust Speed -    
Visibility 10 miles    
Events Fog    
Averages and records for this station are not official NWS values.
T = Trace of Precipitation, MM = Missing Value Source: NWS Daily Summary

Daily Weather History Graph

Daily Weather History Graph

Search for Another Location

Airport:

Trip Planner

Search our weather history database for the weather conditions in past years. The results will help you decide how hot, cold, wet, or windy it might be!

Date:

Astronomy

Nov. 03, 2013 Rise Set
Actual Time 7:00 AM EST 5:46 PM EST
Civil Twilight 6:34 AM EST 6:12 PM EST
Nautical Twilight 6:05 AM EST 6:41 PM EST
Astronomical Twilight 5:36 AM EST 7:10 PM EST
Moon 7:02 AM EST (11/3) 6:02 PM EST (11/3)
Length of Visible Light 11h 37m
Length of Day
10h 46m
New Moon, 0% of the Moon is Illuminated
Nov 3
New Moon
Nov 10
First Quarter
Nov 17
Full
Nov 25
Last Quarter
Dec 2
New

Hourly Weather History & Observations

Time (EST) Temp. Dew Point Humidity Pressure Visibility Wind Dir Wind Speed Gust Speed Precip Events Conditions
12:15 AM 51.8 °F 40.5 °F 65% 30.08 in 10.0 mi North 3.5 mph - N/A   Clear
12:35 AM 51.1 °F 40.5 °F 67% 30.08 in 10.0 mi North 3.5 mph - N/A   Clear
12:55 AM 51.3 °F 40.3 °F 66% 30.09 in 10.0 mi NNW 3.5 mph - N/A   Clear
1:15 AM 48.4 °F 40.1 °F 73% 30.09 in 10.0 mi Calm Calm - N/A   Clear
1:35 AM 46.8 °F 40.5 °F 79% 30.09 in 10.0 mi Calm Calm - N/A   Clear
1:55 AM 45.5 °F 41.4 °F 85% 30.09 in 10.0 mi Calm Calm - N/A   Clear
1:15 AM 44.2 °F 40.1 °F 85% 30.10 in 10.0 mi Calm Calm - N/A   Clear
1:35 AM 44.8 °F 40.5 °F 85% 30.10 in 10.0 mi Calm Calm - N/A   Clear
1:55 AM 42.8 °F 39.2 °F 87% 30.10 in 10.0 mi Calm Calm - N/A   Clear
2:15 AM 40.8 °F 39.9 °F 97% 30.11 in 10.0 mi Calm Calm - N/A   Clear
2:35 AM 42.3 °F 39.4 °F 90% 30.11 in 10.0 mi Calm Calm - N/A   Clear
2:55 AM 41.4 °F 39.0 °F 91% 30.12 in 10.0 mi Calm Calm - N/A   Clear
3:15 AM 41.0 °F 39.2 °F 93% 30.12 in 10.0 mi Calm Calm - N/A   Clear
3:35 AM 40.8 °F 38.8 °F 93% 30.12 in 10.0 mi Calm Calm - N/A   Clear
3:55 AM 39.4 °F 38.3 °F 96% 30.12 in 10.0 mi Calm Calm - N/A   Clear
4:15 AM 39.0 °F 38.1 °F 97% 30.12 in 10.0 mi Calm Calm - N/A   Clear
4:35 AM 38.3 °F 37.2 °F 96% 30.13 in 10.0 mi Calm Calm - N/A   Clear
4:55 AM 38.3 °F 37.9 °F 99% 30.14 in 1.0 mi Calm Calm - N/A   Mist
5:15 AM 38.3 °F 37.8 °F 98% 30.16 in 7.0 mi Calm Calm - N/A   Clear
5:35 AM 37.0 °F 35.8 °F 95% 30.16 in 10.0 mi Calm Calm - N/A   Clear
5:55 AM 36.5 °F 36.5 °F 100% 30.17 in 0.5 mi Calm Calm - N/A Fog Fog
6:15 AM 36.5 °F 36.5 °F 100% 30.17 in 0.5 mi Calm Calm - N/A Fog Fog
6:35 AM 36.5 °F 36.3 °F 99% 30.18 in 10.0 mi Calm Calm - N/A   Clear
6:55 AM 36.3 °F 36.1 °F 99% 30.18 in 5.0 mi Calm Calm - N/A   Clear
7:15 AM 36.9 °F 36.5 °F 99% 30.19 in 10.0 mi Calm Calm - N/A   Clear
7:35 AM 37.4 °F 36.7 °F 97% 30.20 in 10.0 mi Calm Calm - N/A   Clear
7:55 AM 43.0 °F 41.5 °F 95% 30.20 in 10.0 mi Calm Calm - N/A   Clear
8:15 AM 46.9 °F 43.0 °F 86% 30.21 in 10.0 mi North 4.6 mph - N/A   Clear
8:35 AM 48.6 °F 43.0 °F 81% 30.22 in 10.0 mi NNE 10.4 mph - N/A   Clear
8:55 AM 50.0 °F 43.0 °F 77% 30.23 in 10.0 mi North 6.9 mph - N/A   Clear
9:15 AM 51.4 °F 43.0 °F 73% 30.24 in 10.0 mi NNE 8.1 mph - N/A   Clear
9:35 AM 52.3 °F 42.8 °F 70% 30.24 in 10.0 mi NE 6.9 mph - N/A   Clear
9:55 AM 54.3 °F 43.2 °F 66% 30.25 in 10.0 mi NNE 8.1 mph - N/A   Clear
10:15 AM 56.1 °F 43.0 °F 61% 30.25 in 10.0 mi NNE 6.9 mph - N/A   Clear
10:35 AM 57.2 °F 42.8 °F 59% 30.25 in 10.0 mi North 6.9 mph - N/A   Clear
10:55 AM 58.6 °F 41.9 °F 54% 30.25 in 10.0 mi NE 4.6 mph - N/A   Clear
11:15 AM 59.9 °F 41.2 °F 50% 30.24 in 10.0 mi NNE 5.8 mph - N/A   Clear
11:35 AM 60.8 °F 40.1 °F 46% 30.24 in 10.0 mi North 4.6 mph - N/A   Clear
11:55 AM 61.5 °F 39.4 °F 44% 30.24 in 10.0 mi NNW 6.9 mph - N/A   Clear
12:15 PM 62.6 °F 37.6 °F 40% 30.23 in 10.0 mi NE 5.8 mph - N/A   Clear
12:35 PM 63.7 °F 34.9 °F 34% 30.21 in 10.0 mi NE 8.1 mph - N/A   Clear
12:55 PM 63.7 °F 34.3 °F 34% 30.21 in 10.0 mi ENE 5.8 mph - N/A   Clear
1:15 PM 64.4 °F 34.3 °F 33% 30.20 in 10.0 mi North 5.8 mph - N/A   Clear
1:35 PM 64.2 °F 34.2 °F 33% 30.19 in 10.0 mi ENE 3.5 mph - N/A   Clear
1:55 PM 64.4 °F 34.3 °F 33% 30.19 in 10.0 mi ENE 4.6 mph - N/A   Clear
2:15 PM 65.1 °F 35.1 °F 33% 30.19 in 10.0 mi NE 9.2 mph - N/A   Clear
2:35 PM 65.5 °F 34.5 °F 32% 30.18 in 10.0 mi North 4.6 mph - N/A   Clear
2:55 PM 65.5 °F 33.6 °F 31% 30.17 in 10.0 mi NNE 4.6 mph - N/A   Clear
3:15 PM 65.7 °F 35.1 °F 32% 30.17 in 10.0 mi ENE 8.1 mph - N/A   Clear
3:35 PM 65.7 °F 35.2 °F 32% 30.18 in 10.0 mi ENE 5.8 mph - N/A   Clear
3:55 PM 65.7 °F 35.1 °F 32% 30.17 in 10.0 mi NE 5.8 mph - N/A   Clear
4:15 PM 65.3 °F 35.4 °F 33% 30.17 in 10.0 mi East 3.5 mph - N/A   Clear
4:35 PM 64.6 °F 34.0 °F 32% 30.17 in 10.0 mi Calm Calm - N/A   Clear
4:55 PM 64.4 °F 34.5 °F 33% 30.17 in 10.0 mi East 3.5 mph - N/A   Clear
5:15 PM 63.7 °F 35.6 °F 35% 30.17 in 10.0 mi Calm Calm - N/A   Clear
5:35 PM 61.3 °F 38.7 °F 43% 30.19 in 10.0 mi Calm Calm - N/A   Clear
5:55 PM 56.1 °F 40.5 °F 56% 30.20 in 10.0 mi Calm Calm - N/A   Clear
6:15 PM 52.2 °F 42.8 °F 70% 30.20 in 10.0 mi Calm Calm - N/A   Clear
6:35 PM 51.4 °F 42.4 °F 71% 30.21 in 10.0 mi Calm Calm - N/A   Clear
6:55 PM 47.8 °F 41.5 °F 79% 30.21 in 10.0 mi Calm Calm - N/A   Clear
7:15 PM 46.6 °F 41.0 °F 81% 30.22 in 10.0 mi Calm Calm - N/A   Clear
7:35 PM 45.5 °F 41.0 °F 84% 30.22 in 10.0 mi Calm Calm - N/A   Clear
7:55 PM 45.0 °F 41.4 °F 87% 30.23 in 10.0 mi Calm Calm - N/A   Clear
8:15 PM 44.1 °F 41.5 °F 91% 30.23 in 10.0 mi Calm Calm - N/A   Clear
8:35 PM 43.5 °F 41.9 °F 94% 30.24 in 10.0 mi Calm Calm - N/A   Clear
8:55 PM 43.0 °F 41.4 °F 94% 30.24 in 10.0 mi Calm Calm - N/A   Clear
9:15 PM 44.1 °F 41.4 °F 90% 30.24 in 10.0 mi Calm Calm - N/A   Clear
9:35 PM 43.2 °F 41.0 °F 92% 30.25 in 10.0 mi Calm Calm - N/A   Clear
9:55 PM 41.4 °F 39.7 °F 94% 30.26 in 10.0 mi Calm Calm - N/A   Clear
10:15 PM 42.3 °F 40.5 °F 93% 30.26 in 10.0 mi Calm Calm - N/A   Clear
10:35 PM 41.0 °F 39.4 °F 94% 30.27 in 10.0 mi Calm Calm - N/A   Clear
10:55 PM 42.1 °F 40.6 °F 95% 30.28 in 10.0 mi Calm Calm - N/A   Clear